Weather History for Baker, MT

Change the Weather History Date:

Friday, January 11, 2013

  Actual Average Record
Temperature  
Mean Temperature 10 °F -  
Max Temperature 19 °F 45 °F 46 °F (2014)
Min Temperature 1 °F 24 °F -18 °F (2011)
Degree Days  
Heating Degree Days 55    
Moisture  
Dew Point 3 °F    
Average Humidity 78    
Maximum Humidity 86    
Minimum Humidity 72    
Precipitation  
Precipitation 0.00 in - - ()
Sea Level Pressure  
Sea Level Pressure 29.76 in    
Wind  
Wind Speed 17 mph (NW)    
Max Wind Speed 28 mph    
Max Gust Speed 37 mph    
Visibility 3 miles    
Events Snow    
Averages and records for this station are not official NWS values.
T = Trace of Precipitation, MM = Missing Value Source: NWS Daily Summary

Daily Weather History Graph

Daily Weather History Graph

Search for Another Location

Airport:

Trip Planner

Search our weather history database for the weather conditions in past years. The results will help you decide how hot, cold, wet, or windy it might be!

Date:

Astronomy

Jan. 11, 2013 Rise Set
Actual Time 7:38 AM MST 4:32 PM MST
Civil Twilight 7:04 AM MST 5:06 PM MST
Nautical Twilight 6:26 AM MST 5:44 PM MST
Astronomical Twilight 5:50 AM MST 6:20 PM MST
Moon 7:10 AM MST (1/11) 4:57 PM MST (1/11)
Length of Visible Light 10h 02m
Length of Day
8h 54m
Waning Crescent, 0% of the Moon is Illuminated
Jan 11
Waning Crescent
Jan 11
New
Jan 18
First Quarter
Jan 26
Full
Feb 3
Last Quarter

Hourly Weather History & Observations

Time (MST) Temp. Windchill Dew Point Humidity Pressure Visibility Wind Dir Wind Speed Gust Speed Precip Events Conditions
12:51 AM 19.9 °F 5.7 °F 16.0 °F 85% 29.65 in 4.0 mi WNW 16.1 mph 23.0 mph N/A   Overcast
1:51 AM 19.0 °F 4.5 °F 15.1 °F 85% 29.66 in 5.0 mi WNW 16.1 mph 23.0 mph N/A   Overcast
2:21 AM 19.4 °F 5.5 °F 14.0 °F 80% 29.59 in 7.0 mi WNW 15.0 mph 21.9 mph N/A   Overcast
2:51 AM 18.0 °F 4.2 °F 14.0 °F 84% 29.67 in 6.0 mi WNW 13.8 mph 23.0 mph N/A   Overcast
3:51 AM 18.0 °F 4.2 °F 12.9 °F 81% 29.66 in 5.0 mi WNW 13.8 mph - N/A   Haze
4:51 AM 17.1 °F 3.0 °F 12.0 °F 81% 29.68 in 5.0 mi NW 13.8 mph - N/A   Haze
5:51 AM 17.1 °F 5.0 °F 12.0 °F 81% 29.69 in 2.5 mi NW 10.4 mph - 0.00 in Snow Light Snow
6:10 AM 15.8 °F 0.9 °F 12.2 °F 86% 29.61 in 3.0 mi NNW 15.0 mph - 0.00 in Snow Light Snow
6:51 AM 16.0 °F 1.7 °F 10.9 °F 81% 29.69 in 5.0 mi NW 13.8 mph - 0.00 in Snow Light Snow
7:12 AM 15.8 °F 0.9 °F 10.4 °F 79% 29.59 in 7.0 mi NW 15.0 mph 23.0 mph 0.00 in Snow Light Snow
7:51 AM 15.1 °F -2.5 °F 10.0 °F 80% 29.70 in 9.0 mi NW 20.7 mph 26.5 mph 0.00 in   Overcast
8:58 AM 12.2 °F -3.7 °F 8.6 °F 85% 29.63 in 8.0 mi NW 15.0 mph - 0.00 in Snow Light Snow
9:03 AM 12.2 °F -5.8 °F 8.6 °F 85% 29.63 in 6.0 mi NW 19.6 mph - 0.00 in Snow Light Snow
9:51 AM 12.9 °F -2.2 °F 8.1 °F 81% 29.78 in 5.0 mi NW 13.8 mph 21.9 mph 0.00 in Snow Light Snow
10:10 AM 12.2 °F -3.7 °F 8.6 °F 85% 29.66 in 1.8 mi NW 15.0 mph 20.7 mph 0.00 in Snow Light Snow
10:37 AM 12.2 °F -3.1 °F 6.8 °F 79% 29.66 in 2.0 mi NW 13.8 mph - 0.00 in Snow Light Snow
10:41 AM 12.2 °F -3.1 °F 8.6 °F 85% 29.66 in 1.8 mi NW 13.8 mph - 0.00 in Snow Light Snow
10:51 AM 12.9 °F -1.6 °F 7.0 °F 77% 29.79 in 1.5 mi NW 12.7 mph - 0.00 in Snow Light Snow
11:04 AM 12.2 °F -3.7 °F 6.8 °F 79% 29.66 in 2.0 mi NNW 15.0 mph - 0.00 in Snow Light Snow
11:09 AM 12.2 °F -4.3 °F 6.8 °F 79% 29.67 in 3.0 mi NNW 16.1 mph 25.3 mph 0.00 in Snow Light Snow
11:15 AM 12.2 °F -3.7 °F 6.8 °F 79% 29.68 in 3.0 mi NW 15.0 mph 25.3 mph 0.00 in Snow Light Snow
11:23 AM 12.2 °F -3.1 °F 6.8 °F 79% 29.68 in 2.5 mi NW 13.8 mph - 0.00 in Snow Light Snow
11:38 AM 12.2 °F -3.7 °F 6.8 °F 79% 29.67 in 2.0 mi NW 15.0 mph - 0.00 in Snow Light Snow
11:43 AM 10.4 °F -6.0 °F 6.8 °F 85% 29.67 in 1.5 mi WNW 15.0 mph - 0.00 in Snow Light Snow
11:51 AM 10.9 °F -5.4 °F 6.1 °F 81% 29.80 in 2.0 mi WNW 15.0 mph - 0.00 in Snow Light Snow
12:06 PM 10.4 °F -7.2 °F 6.8 °F 85% 29.66 in 1.8 mi NW 17.3 mph - 0.00 in Snow Light Snow
12:51 PM 10.9 °F -8.3 °F 5.0 °F 77% 29.76 in 3.0 mi NW 21.9 mph 26.5 mph 0.00 in Snow Light Snow
1:41 PM 10.4 °F -5.4 °F 3.2 °F 73% 29.67 in 4.0 mi NW 13.8 mph - 0.00 in Snow Light Snow
1:51 PM 10.0 °F -7.6 °F 3.9 °F 76% 29.81 in 3.0 mi NW 17.3 mph - 0.00 in Snow Light Snow
2:10 PM 8.6 °F -10.5 °F 3.2 °F 79% 29.68 in 5.0 mi NW 19.6 mph - 0.00 in Snow Light Snow
2:27 PM 8.6 °F -10.0 °F 3.2 °F 79% 29.68 in 2.0 mi NW 18.4 mph - 0.00 in Snow Light Snow
2:51 PM 9.0 °F -10.5 °F 1.9 °F 73% 29.83 in 3.0 mi NNW 20.7 mph 31.1 mph 0.00 in Snow Light Snow
3:02 PM 8.6 °F -9.5 °F 3.2 °F 79% 29.69 in 1.8 mi NNW 17.3 mph - 0.00 in Snow Light Snow
3:29 PM 8.6 °F -11.9 °F 1.4 °F 73% 29.71 in 2.5 mi NNW 23.0 mph 28.8 mph 0.00 in Snow Light Snow
3:34 PM 8.6 °F -12.3 °F 1.4 °F 73% 29.71 in 3.0 mi NNW 24.2 mph 31.1 mph 0.00 in Snow Light Snow
3:45 PM 8.6 °F -10.0 °F 1.4 °F 73% 29.71 in 2.0 mi NNW 18.4 mph 25.3 mph 0.00 in Snow Light Snow
3:51 PM 8.1 °F -12.6 °F 1.0 °F 73% 29.86 in 1.5 mi NNW 23.0 mph 29.9 mph 0.00 in Snow Light Snow
3:59 PM 8.6 °F -10.5 °F 1.4 °F 73% 29.72 in 3.0 mi NW 19.6 mph 29.9 mph 0.00 in Snow Light Snow
4:09 PM 6.8 °F -15.5 °F -0.4 °F 72% 29.73 in 2.5 mi NNW 26.5 mph 34.5 mph 0.00 in Snow Light Snow
4:20 PM 6.8 °F -14.3 °F -0.4 °F 72% 29.74 in 4.0 mi NNW 23.0 mph 26.5 mph 0.00 in Snow Light Snow
4:35 PM 6.8 °F -13.8 °F -0.4 °F 72% 29.75 in 2.5 mi NNW 21.9 mph 28.8 mph 0.00 in Snow Light Snow
4:51 PM 6.1 °F -13.3 °F -0.9 °F 73% 29.91 in 5.0 mi NNW 18.4 mph 28.8 mph 0.00 in Snow Light Snow
5:13 PM 6.8 °F -13.8 °F -0.4 °F 72% 29.76 in 4.0 mi NNW 21.9 mph 29.9 mph 0.00 in Snow Light Snow
5:41 PM 6.8 °F -12.4 °F -0.4 °F 72% 29.77 in 2.0 mi NW 18.4 mph 23.0 mph 0.00 in Snow Light Snow
5:48 PM 5.0 °F -16.7 °F -0.4 °F 78% 29.77 in 2.5 mi NNW 23.0 mph 28.8 mph 0.00 in Snow Light Snow
5:51 PM 5.0 °F -16.7 °F -0.9 °F 76% 29.93 in 3.0 mi NNW 23.0 mph 28.8 mph 0.00 in Snow Light Snow
6:48 PM 3.2 °F -18.1 °F -2.2 °F 78% 29.80 in 2.5 mi NNW 20.7 mph 29.9 mph 0.00 in Snow Light Snow
6:51 PM 3.9 °F -18.1 °F -2.9 °F 73% 29.96 in 2.0 mi NNW 23.0 mph - 0.00 in Snow Light Snow
7:38 PM 3.2 °F -17.1 °F -2.2 °F 78% 29.81 in 1.8 mi NW 18.4 mph 26.5 mph 0.00 in Snow Light Snow
7:44 PM 3.2 °F -17.6 °F -2.2 °F 78% 29.81 in 2.0 mi NW 19.6 mph 27.6 mph 0.00 in Snow Light Snow
7:51 PM 3.9 °F -16.6 °F -2.9 °F 73% 29.97 in 2.0 mi NW 19.6 mph 27.6 mph 0.00 in Snow Light Snow
7:56 PM 3.2 °F -18.1 °F -2.2 °F 78% 29.81 in 1.8 mi NW 20.7 mph 27.6 mph 0.00 in Snow Light Snow
8:02 PM 3.2 °F -17.6 °F -2.2 °F 78% 29.81 in 2.0 mi NW 19.6 mph 27.6 mph 0.00 in Snow Light Snow
8:51 PM 1.9 °F -20.7 °F -4.0 °F 76% 29.99 in 2.5 mi NW 23.0 mph 32.2 mph 0.00 in Snow Light Snow
9:09 PM 1.4 °F -22.3 °F -4.0 °F 78% 29.83 in 3.0 mi NNW 25.3 mph 31.1 mph 0.00 in Snow Light Snow
9:27 PM 3.2 °F -19.0 °F -4.0 °F 72% 29.84 in 4.0 mi NW 23.0 mph - 0.00 in Snow Light Snow
9:51 PM 1.9 °F -20.2 °F -4.0 °F 76% 30.01 in 3.0 mi NW 21.9 mph 33.4 mph 0.00 in Snow Light Snow
10:09 PM 1.4 °F -23.2 °F -5.8 °F 72% 29.85 in 2.5 mi NW 27.6 mph 36.8 mph 0.00 in Snow Light Snow
10:19 PM 1.4 °F -22.3 °F -4.0 °F 78% 29.85 in 3.0 mi NW 25.3 mph 31.1 mph 0.00 in Snow Light Snow
10:43 PM 1.4 °F -21.0 °F -5.8 °F 72% 29.86 in 4.0 mi NW 21.9 mph 34.5 mph 0.00 in Snow Light Snow
10:51 PM 1.9 °F -19.8 °F -5.1 °F 72% 30.04 in 4.0 mi NW 20.7 mph 32.2 mph 0.00 in Snow Light Snow
11:51 PM 1.9 °F -21.2 °F -5.1 °F 72% 30.07 in 4.0 mi NW 24.2 mph 33.4 mph 0.00 in Snow Light Snow